This demonstration page uses our WeatherBlox Daily Observations layout. Learn more.

Left ArrowRight Arrow

44.89941, -97.11507

Hourly Observations for October 10, 2021

Temp ( °F °C ) Dew Point ( °F °C ) Humidity (%) Winds ( mph kmh ) Pressure ( in mb ) Visibility ( mi km ) Precip ( " mm )
12:05 am 00:05 Partly Cloudy 54 12.2 54 12.2 100 100 NNE 9 15 29.48 998 10 16 N/A
12:53 am 00:53 Mostly Cloudy with Mist and Fog 52 11.1 52 11.1 100 100 SSW 5 7 29.48 998 2 3 N/A
12:59 am 00:59 Mostly Cloudy with Mist and Fog 53 11.7 53 11.7 100 100 SSW 3 6 29.50 999 3 5 N/A
1:31 am 01:31 Cloudy 56 13.3 55 12.8 97 97 S 7 11 29.48 998 10 16 N/A
1:53 am 01:53 Cloudy 56 13.3 55 12.8 97 97 S 6 9 29.47 998 10 16 N/A
2:12 am 02:12 Cloudy with Mist and Fog 55 12.8 55 12.8 100 100 SSW 8 13 29.48 998 2 3 N/A
2:14 am 02:14 Cloudy with Mist and Fog 55 12.8 55 12.8 100 100 SSW 8 13 29.48 998 1 2 N/A
2:22 am 02:22 Cloudy with Fog 55 12.8 55 12.8 100 100 SSW 12 19 29.48 998 1 1 N/A
2:46 am 02:46 Cloudy with Mist and Fog 55 12.8 55 12.8 100 100 SSW 10 17 29.47 998 1 2 N/A
2:49 am 02:49 Cloudy with Mist and Fog 55 13 55 13 100 100 SSW 12 19 29.47 998 2 3 N/A
2:53 am 02:53 Cloudy with Mist and Fog 55 12.8 55 12.8 100 100 SSW 9 15 29.47 998 5 8 N/A
3:09 am 03:09 Cloudy 55 12.8 55 12.8 100 100 S 9 15 29.46 998 10 16 N/A
3:18 am 03:18 Mostly Cloudy 55 12.8 54 12.2 96 96 SSW 10 17 29.46 998 10 16 N/A
3:53 am 03:53 Mostly Cloudy 56 13.3 55 12.8 97 97 SSW 15 24 29.45 997 10 16 N/A
3:59 am 03:59 Cloudy 56 13.3 55 12.8 97 97 SSW 13 20 29.45 997 10 16 N/A
4:12 am 04:12 Cloudy 57 13.9 55 12.8 93 93 SSW 17 28 29.44 997 10 16 N/A
4:53 am 04:53 Cloudy 56 13.3 55 12.8 97 97 WSW 14 22 29.45 997 8 13 N/A
5:40 am 05:40 Cloudy with Mist and Fog 55 12.8 54 12.2 96 96 SW 14 22 29.46 998 3 5 N/A
5:53 am 05:53 Cloudy with Mist and Fog 55 12.8 54 12.2 96 96 WSW 14 22 29.45 997 4 6 N/A
6:14 am 06:14 Cloudy with Mist and Fog 54 12.2 54 12.2 100 100 WSW 12 19 29.47 998 2 3 N/A
6:25 am 06:25 Cloudy with Mist and Fog 54 12.2 54 12.2 100 100 SW 14 22 29.47 998 1 2 N/A
6:38 am 06:38 Cloudy with Mist and Fog 54 12.2 54 12.2 100 100 SW 12 19 29.47 998 2 3 N/A
6:53 am 06:53 Cloudy with Mist and Fog 54 12.2 53 11.7 97 97 SW 13 20 29.47 998 3 4 N/A
7:08 am 07:08 Cloudy with Mist and Fog 53 11.7 53 11.7 100 100 SW 15 24 29.47 998 1 2 N/A
7:19 am 07:19 Cloudy with Mist and Fog 53 11.7 53 11.7 100 100 SW 14 22 29.47 998 2 3 N/A
7:30 am 07:30 Cloudy with Mist and Fog 53 11.7 53 11.7 100 100 SW 14 22 29.47 998 4 6 N/A
7:42 am 07:42 Cloudy with Light Rain 53 11.7 53 11.7 100 100 SW 15 24 29.47 998 3 5 0.01 0.25
7:53 am 07:53 Cloudy with Light Rain 53 11.7 52 11.1 96 96 W 15 24 29.48 998 4 6 0.01 0.25
8:10 am 08:10 Cloudy with Light Rain 52 11.1 51 10.6 97 97 W 20 31 29.48 998 2 3 0.01 0.25
8:23 am 08:23 Cloudy with Light Rain 51 10.6 50 10 96 96 W 17 28 29.50 999 5 8 0.01 0.25
8:53 am 08:53 Cloudy 50 10 49 9.4 96 96 W 20 31 29.49 999 10 16 0.01 0.25
9:53 am 09:53 Cloudy 49 9.4 47 8.3 93 93 W 15 24 29.51 999 10 16 N/A
10:53 am 10:53 Cloudy 48 8.9 46 7.8 93 93 W 21 33 29.52 1000 10 16 N/A
11:40 am 11:40 Cloudy 48 8.9 46 7.8 93 93 WSW 22 35 29.53 1000 10 16 0.00 0.00
11:53 am 11:53 Cloudy 48 8.9 45 7.2 89 89 WSW 21 33 29.52 1000 10 16 0.00 0.00
12:53 pm 12:53 Cloudy 48 8.9 46 7.8 93 93 W 21 33 29.53 1000 9 14 N/A
1:01 pm 13:01 Cloudy 48 8.9 46 7.8 93 93 W 20 31 29.54 1000 9 14 N/A
1:12 pm 13:12 Cloudy with Mist and Fog 48 8.9 46 7.8 93 93 W 24 39 29.54 1000 6 10 N/A
1:22 pm 13:22 Cloudy 48 8.9 46 7.8 93 93 W 22 35 29.55 1001 10 16 N/A
1:31 pm 13:31 Cloudy 48 8.9 45 7.2 89 89 W 22 35 29.54 1000 10 16 N/A
1:53 pm 13:53 Cloudy 49 9.4 46 7.8 90 90 W 26 43 29.53 1000 10 16 N/A
2:33 pm 14:33 Cloudy with Light Rain 48 8.9 46 7.8 93 93 W 26 43 29.55 1001 3 4 0.02 0.51
2:41 pm 14:41 Cloudy with Mist and Fog 48 8.9 46 7.8 93 93 WSW 23 37 29.55 1001 4 6 0.02 0.51
2:53 pm 14:53 Cloudy with Mist and Fog 48 8.9 46 7.8 93 93 WSW 23 37 29.53 1000 3 5 0.02 0.51
3:00 pm 15:00 Cloudy with Mist and Fog 48 8.9 47 8.3 96 96 W 23 37 29.55 1001 3 5 N/A
3:53 pm 15:53 Cloudy 49 9.4 47 8.3 93 93 W 20 31 29.55 1001 9 14 0.00 0.00
4:04 pm 16:04 Cloudy with Mist and Fog 49 9.4 47 8.3 93 93 W 21 33 29.56 1001 6 10 N/A
4:18 pm 16:18 Cloudy 49 9.4 46 7.8 90 90 W 20 31 29.56 1001 10 16 N/A
4:45 pm 16:45 Cloudy 50 10 46 7.8 86 86 WNW 15 24 29.56 1001 10 16 N/A
4:53 pm 16:53 Cloudy 50 10 45 7.2 83 83 W 17 28 29.56 1001 10 16 N/A
5:53 pm 17:53 Cloudy 51 10.6 43 6.1 74 74 WNW 16 26 29.58 1002 10 16 N/A
6:53 pm 18:53 Cloudy 52 11.1 37 2.8 57 57 WNW 20 31 29.61 1003 10 16 N/A
7:53 pm 19:53 Partly Cloudy 51 10.6 40 4.4 66 66 NW 13 20 29.64 1004 10 16 N/A
8:53 pm 20:53 Clear 47 8.3 41 5 80 80 SW 5 7 29.66 1005 10 16 N/A
9:53 pm 21:53 Clear 46 7.8 43 6.1 89 89 SW 7 11 29.68 1005 10 16 N/A
10:53 pm 22:53 Clear 49 9.4 45 7.2 86 86 SW 10 17 29.68 1005 10 16 N/A
11:53 pm 23:53 Clear 48 8.9 45 7.2 89 89 WSW 6 9 29.67 1005 10 16 N/A

Powered by AerisWeather